Home   Weather   Washington Square   Past weeks
Flag for USA

Past Weather in Washington Square, Louisiana, USA — Yesterday and Last 2 Weeks

Now
72 °F

Fog.


Feels Like: 68 °F
Forecast: 80 / 70 °F
Wind: 9 mph from South

Location: Lakefront Airport

Current Time: Feb 22, 2019 at 6:26:52 am

Latest Report: Feb 22, 2019 at 5:53 am


Visibility: 5 mi

Pressure: 30.00 "Hg

Humidity: 93%

Dew Point: 70 °F

Location of Washington SquareLocation

Past Weather in Washington Square — Graph

°F

Washington Square Temperature Yesterday

Maximum temperature yesterday: 80 °F (at 12:33 pm)
Minimum temperature yesterday: 61 °F (at 12:14 am)
Average temperature yesterday: 70 °F

High & Low Weather Summary for the Past Weeks

 TemperatureHumidityPressure
High80 °F (Feb 21, 12:33 pm)100% (Feb 16, 6:53 am)30.51 "Hg (Feb 16, 6:53 am)
Low47 °F (Feb 9, 4:53 am)39% (Feb 8, 3:53 pm)29.73 "Hg (Feb 16, 5:53 pm)
Average63 °F80%30.03 "Hg
* Reported Feb 7 4:53 am — Feb 22 4:53 am, Washington Square. Weather by CustomWeather, © 2019

Note: Actual official high and low records may vary slightly from our data, if they occured in-between our weather recording intervals... More about our weather records

Advertising

Washington Square Weather History for the Previous 24 Hours

Scroll right to see more
 ConditionsComfort  
Time TempWeatherWind HumidityBarometerVisibility
4:53 am
Fri, Feb 22
72 °FLow clouds.12 mph93%29.99 "Hg7 mi
3:53 am72 °FFog.8 mph93%30.00 "Hg6 mi
3:30 am72 °FLow clouds.7 mph93%30.02 "Hg7 mi
3:21 am72 °FMostly cloudy.7 mph93%30.02 "Hg7 mi
3:09 am72 °FLow clouds.8 mph93%30.02 "Hg7 mi
2:53 am72 °FOvercast.8 mph93%30.00 "Hg7 mi
1:53 am73 °FLow clouds.9 mph94%30.00 "Hg7 mi
12:53 am73 °FFog.9 mph94%29.99 "Hg6 mi
11:53 pm
Thu, Feb 21
73 °FFog.8 mph94%29.98 "Hg6 mi
10:53 pm72 °FMostly cloudy.7 mph93%29.98 "Hg7 mi
10:10 pm73 °FLow clouds.8 mph90%30.01 "Hg7 mi
9:53 pm73 °FPassing clouds.9 mph90%29.98 "Hg7 mi
9:19 pm73 °FMostly cloudy.10 mph90%30.00 "Hg7 mi
8:53 pm74 °FMostly cloudy.10 mph88%29.98 "Hg8 mi
7:53 pm74 °FPassing clouds.12 mph88%29.97 "Hg8 mi
7:15 pm75 °FOvercast.10 mph88%29.99 "Hg8 mi
5:53 pm76 °FPassing clouds.15 mph82%29.95 "Hg8 mi
5:38 pm76 °FPartly sunny.16 mph82%29.96 "Hg8 mi
4:53 pm77 °FScattered clouds.17 mph79%29.94 "Hg9 mi
3:53 pm79 °FPartly sunny.20 mph74%29.94 "Hg10 mi
2:53 pm79 °FMostly cloudy.22 mph74%29.93 "Hg10 mi
2:34 pm80 °FBroken clouds.21 mph71%29.95 "Hg10 mi
2:02 pm80 °FBroken clouds.15 mph74%29.94 "Hg10 mi
1:04 pm79 °FMostly cloudy.18 mph77%29.96 "Hg10 mi
12:53 pm79 °FBroken clouds.16 mph77%29.94 "Hg10 mi
12:33 pm80 °FBroken clouds.20 mph76%29.97 "Hg10 mi
11:32 am78 °FMostly cloudy.17 mph82%29.98 "Hg8 mi
11:07 am76 °FMostly cloudy.17 mph91%29.99 "Hg7 mi
10:53 am74 °FFog.13 mph94%29.97 "Hg6 mi
10:32 am70 °FFog.6 mph97%30.00 "Hg2 mi
10:18 am69 °FFog.5 mph100%30.00 "Hg2 mi
9:53 am67 °FFog.6 mph97%29.98 "Hg1 mi
8:53 am63 °FLight rain. Fog.3 mph100%29.98 "Hg0 mi
7:53 am62 °FLight rain. Fog.9 mph96%29.98 "Hg0 mi
6:53 am62 °FFog.9 mph96%29.97 "Hg0 mi
Weather by CustomWeather, © 2019

See weather overview